Date,TemperatureHighF,TemperatureAvgF,TemperatureLowF,DewpointHighF,DewpointAvgF,DewpointLowF,HumidityHigh,HumidityAvg,HumidityLow,PressureMaxIn,PressureMinIn,WindSpeedMaxMPH,WindSpeedAvgMPH,GustSpeedMaxMPH,PrecipitationSumIn
2012-1-1,59.4,50.3,41.9,31.8,24.8,13.6,64,39,18,30.89,30.38,25,6,0,0.00
2012-1-2,54.6,43.3,35.2,31.7,20.9,5.3,77,45,18,31.03,30.83,17,4,0,0.00
2012-1-3,60.1,45.0,25.2,32.5,23.4,14.3,100,50,19,30.91,30.44,17,5,0,0.00
2012-1-4,64.4,47.7,36.8,41.1,31.4,19.4,94,57,21,30.67,30.43,11,2,0,0.00
2012-1-5,69.7,51.0,33.4,42.3,32.2,19.9,100,58,18,30.65,30.28,10,2,0,0.00
2012-1-6,75.0,61.9,45.4,53.6,44.6,35.0,95,57,26,30.30,30.03,18,6,0,0.00
2012-1-7,62.4,52.3,44.7,55.4,41.5,31.5,94,68,41,30.31,30.11,14,4,0,0.00
2012-1-8,59.9,50.1,40.4,48.1,44.3,38.5,100,82,53,30.37,30.25,12,2,0,0.04
2012-1-9,51.0,46.2,42.8,47.5,44.9,41.0,100,96,76,30.44,30.23,19,6,0,1.38
2012-1-10,46.4,44.3,41.8,44.9,42.9,39.1,100,95,79,30.34,30.09,16,4,0,0.47
2012-1-11,65.4,50.1,35.3,47.3,37.5,27.7,100,67,35,30.32,29.82,30,5,0,0.00
2012-1-12,42.5,35.7,28.0,28.4,11.4,-5.8,74,40,15,30.66,30.23,32,9,0,0.00
2012-1-13,57.9,43.3,24.9,28.8,20.2,5.0,93,46,17,30.62,30.38,15,4,0,0.00
2012-1-14,70.7,53.5,37.7,33.2,22.0,3.1,62,32,10,30.54,30.40,21,4,0,0.00
2012-1-15,65.0,54.4,38.0,52.9,33.8,23.6,75,49,23,30.56,30.27,23,7,0,0.00
2012-1-16,72.0,66.5,61.2,63.6,58.0,52.6,87,74,61,30.30,30.08,26,10,0,0.00
2012-1-17,68.3,51.0,38.7,64.4,33.9,15.5,100,55,31,30.65,30.10,28,9,0,0.00
2012-1-18,59.2,43.8,29.7,34.2,21.6,7.5,80,44,19,30.67,30.25,11,2,0,0.00
2012-1-19,76.2,55.5,39.1,41.4,33.4,15.2,94,52,13,30.25,30.00,15,2,0,0.00
2012-1-20,78.9,62.9,48.3,61.5,48.7,31.3,100,64,31,30.17,29.84,21,7,0,0.00
2012-1-21,53.5,44.5,37.9,44.0,30.3,19.8,89,59,31,30.43,30.10,21,6,0,0.00
2012-1-22,80.8,60.9,45.9,57.6,39.0,0.1,100,59,6,30.24,29.77,33,9,0,0.00
2012-1-23,66.2,52.7,41.1,35.6,28.0,10.7,80,42,14,30.38,30.21,16,2,0,0.00
2012-1-24,70.2,54.3,45.1,54.6,36.9,25.4,100,57,23,30.35,30.09,17,5,0,1.26
2012-1-25,52.4,49.1,47.0,52.3,47.7,45.1,100,95,86,30.24,30.05,23,8,0,3.19
2012-1-26,61.4,51.1,45.7,47.6,39.6,26.3,100,70,28,30.31,30.13,19,5,0,0.16
2012-1-27,68.3,54.2,36.6,43.2,36.7,25.5,100,58,28,30.42,30.08,24,7,0,0.00
2012-1-28,52.7,45.8,35.1,36.6,22.4,8.5,98,42,20,30.76,30.41,22,6,0,0.00
2012-1-29,63.0,46.9,28.1,36.0,26.3,11.4,100,54,14,30.78,30.49,13,3,0,0.00
2012-1-30,68.8,57.0,42.8,54.5,40.5,27.2,76,55,33,30.52,30.26,20,6,0,0.00
2012-1-31,76.0,65.4,58.8,61.6,56.1,48.1,100,74,42,30.33,30.16,19,7,0,0.00
2012-2-1,77.3,62.1,52.5,62.0,53.8,44.6,100,79,37,30.37,30.20,16,2,0,0.00
2012-2-2,74.9,61.5,48.0,63.8,55.0,47.1,100,82,44,30.42,30.18,15,4,0,0.00
2012-2-3,74.6,67.3,55.1,66.3,61.5,47.1,100,83,60,30.26,30.06,22,8,0,0.12
2012-2-4,57.2,50.1,44.6,47.2,35.6,28.9,75,58,42,30.57,30.25,24,11,0,0.00
2012-2-5,47.9,42.7,36.3,38.4,30.4,25.1,100,62,47,30.68,30.55,21,7,0,0.00
2012-2-6,59.2,45.4,34.1,37.2,31.8,18.9,100,65,27,30.67,30.39,8,1,0,0.00
2012-2-7,60.6,52.6,46.4,43.4,36.7,28.0,89,56,32,30.62,30.39,14,2,0,0.00
2012-2-8,48.2,43.5,41.2,39.4,34.7,29.3,91,72,57,30.78,30.61,12,4,0,0.00
2012-2-9,59.5,47.3,31.5,43.1,34.8,23.9,100,65,35,30.66,30.31,14,3,0,0.00
2012-2-10,59.2,48.6,35.5,48.7,37.7,22.3,99,69,37,30.70,30.28,19,7,0,0.08
2012-2-11,39.3,32.6,29.2,25.8,11.9,-2.4,68,44,22,30.98,30.68,21,8,0,0.00
2012-2-12,44.6,35.4,28.4,34.3,14.5,-0.7,93,46,20,31.04,30.49,15,4,0,0.00
2012-2-13,48.4,40.6,34.6,45.9,39.1,31.1,100,94,81,30.51,30.09,13,4,0,0.24
2012-2-14,64.9,52.3,45.2,52.4,47.6,41.1,100,86,50,30.26,30.05,18,4,0,0.00
2012-2-15,77.3,61.1,52.4,60.7,41.5,17.3,100,61,14,30.28,30.03,17,3,0,0.08
2012-2-16,58.2,50.3,43.6,43.0,39.5,29.1,95,68,37,30.53,30.28,17,4,0,0.00
2012-2-17,66.2,54.4,47.4,49.5,42.8,29.6,96,68,31,30.48,30.21,11,2,0,0.00
2012-2-18,53.7,48.9,45.0,50.0,47.1,42.8,100,94,70,30.31,30.11,19,6,0,1.85
2012-2-19,59.6,47.8,38.7,46.1,39.8,28.5,100,77,37,30.42,30.22,15,3,0,0.00
2012-2-20,64.8,53.7,43.7,52.9,41.0,2.2,100,69,10,30.36,30.10,22,7,0,0.00
2012-2-21,72.1,56.7,32.1,53.6,33.5,1.9,100,50,9,30.43,30.11,15,4,0,0.00
2012-2-22,81.5,68.4,56.4,57.7,36.9,6.0,97,42,7,30.11,29.78,22,7,0,0.00
2012-2-23,85.1,70.3,60.6,36.8,20.8,8.7,41,16,6,29.79,29.58,31,12,0,0.00
2012-3-20,82.8,61.9,54.1,56.3,46.9,15.5,99,60,8,30.08,29.60,12,3,0,6.34
2012-3-21,67.3,59.4,51.9,55.3,37.2,23.3,100,48,22,30.08,29.95,21,6,0,0.00
2012-3-22,78.6,57.0,51.3,51.6,44.6,28.9,93,67,19,30.22,29.94,26,6,0,0.24
2012-3-23,80.8,62.7,47.6,52.1,39.2,16.4,100,51,12,30.29,30.13,11,1,0,0.00
2012-3-24,86.9,68.6,51.6,56.9,45.4,25.4,100,51,16,30.28,30.13,15,1,0,0.00
2012-3-25,65.1,59.7,56.3,60.8,55.8,52.1,96,87,72,30.28,30.21,5,0,0,0.00
2012-3-26,59.2,59.2,59.2,55.6,55.6,55.6,88,88,88,30.28,30.28,0,0,0,0.00
2012-3-27,81.8,65.6,59.2,55.6,53.0,40.3,88,69,25,30.28,30.15,19,3,0,0.00
2012-3-28,80.5,70.7,64.3,62.7,57.1,47.7,87,64,40,30.24,30.11,15,5,0,0.00
2012-3-29,83.9,69.9,61.2,66.0,59.9,45.8,100,74,34,30.18,29.99,14,4,0,0.00
2012-3-30,84.4,73.6,68.0,67.6,62.9,51.4,97,72,37,30.09,29.93,17,6,0,0.00
2012-3-31,87.6,74.9,64.7,66.7,60.9,46.0,100,67,29,30.10,29.92,14,5,0,0.00
2012-4-1,74.1,69.5,68.6,68.5,66.2,65.5,92,89,77,30.01,29.94,15,5,0,0.00
2012-4-2,68.6,68.6,68.6,65.6,65.6,65.6,90,90,90,30.01,30.01,5,5,0,0.00
2012-4-3,68.6,68.6,68.6,65.6,65.6,65.6,90,90,90,30.01,30.01,5,5,0,0.00
2012-4-4,68.6,68.6,68.6,65.6,65.6,65.6,90,90,90,30.01,30.01,5,5,0,0.00
2012-4-5,68.6,68.6,68.6,65.6,65.6,65.6,90,90,90,30.01,30.01,5,5,0,0.00
2012-4-6,68.6,68.6,68.6,65.6,65.6,65.6,90,90,90,30.01,30.01,5,5,0,0.00
2012-4-7,68.6,68.6,68.6,65.6,65.6,65.6,90,90,90,30.01,30.01,5,5,0,0.00
2012-4-8,68.6,68.6,68.6,65.6,65.6,65.6,90,90,90,30.01,30.01,5,5,0,0.00
2012-4-9,68.6,68.6,68.6,65.6,65.6,65.6,90,90,90,30.01,30.01,5,5,0,0.00
2012-4-10,68.6,68.6,68.6,65.6,65.6,65.6,90,90,90,30.01,30.01,5,5,0,0.00
2012-4-11,68.6,68.6,68.6,65.6,65.6,65.6,90,90,90,30.01,30.01,5,5,0,0.00
2012-4-12,68.6,68.6,68.6,65.6,65.6,65.6,90,90,90,30.01,30.01,5,5,0,0.00
2012-4-13,68.6,68.6,68.6,65.6,65.6,65.6,90,90,90,30.01,30.01,5,5,0,0.00
2012-4-14,68.6,68.6,68.6,65.6,65.6,65.6,90,90,90,30.01,30.01,5,5,0,0.00
2012-5-14,86.5,78.7,73.1,50.3,42.1,27.9,44,29,15,30.23,30.16,14,4,8,0.67
2012-5-15,91.7,76.0,66.9,55.3,40.7,14.3,62,34,8,30.26,30.15,14,3,0,0.00
2012-5-16,97.8,77.1,61.4,63.9,42.8,14.9,100,40,7,30.27,30.10,10,2,0,0.00
2012-5-17,95.0,78.9,63.9,63.2,43.4,18.0,91,36,9,30.23,30.05,14,4,0,0.00
2012-5-18,91.2,79.9,66.6,56.9,44.5,31.5,69,32,14,30.16,29.98,21,8,0,0.00
2012-5-19,90.9,78.6,67.6,64.5,50.1,38.6,84,42,20,30.17,30.03,22,9,0,0.00
2012-5-20,96.3,79.5,69.7,60.0,46.4,27.9,71,35,12,30.32,30.15,20,4,0,0.00
2012-5-21,94.7,79.8,65.7,60.5,46.5,30.8,76,35,13,30.34,30.19,13,2,0,0.00
2012-5-22,105.5,82.1,66.0,54.2,42.4,22.4,54,27,9,30.24,29.96,14,3,0,0.00
2012-5-23,94.2,82.3,73.4,59.7,50.7,41.6,60,35,22,30.02,29.73,25,10,0,0.00
2012-5-24,94.9,83.3,75.2,62.6,57.2,48.2,65,44,23,29.91,29.73,26,11,0,0.00
2012-5-25,95.5,84.0,74.1,66.6,57.6,46.0,77,44,22,30.12,29.90,24,10,0,0.00
2012-5-26,93.2,83.5,75.8,66.4,55.9,42.8,71,43,19,30.22,30.05,20,8,0,0.00
2012-5-27,94.5,82.8,72.5,67.0,50.2,33.3,81,37,14,30.20,29.99,23,9,0,0.00
2012-5-28,96.0,83.5,67.4,67.9,53.9,41.3,97,40,18,30.22,29.90,21,7,0,0.51
2012-5-29,99.3,82.2,68.8,69.8,57.4,42.7,100,51,18,30.17,29.92,28,6,0,0.04
2012-5-30,87.1,78.9,70.8,62.0,55.4,49.5,58,45,35,30.16,29.92,24,7,0,0.04
2012-6-12,97.1,83.1,74.2,61.6,51.5,26.1,64,36,10,30.26,30.12,14,4,14,2.91
2012-6-13,91.4,77.7,70.8,72.9,60.7,44.7,92,61,22,30.26,30.01,13,4,0,0.12
2012-6-14,96.1,84.6,76.2,71.4,59.9,44.4,82,49,19,30.15,29.99,18,7,0,0.00
2012-6-15,94.2,82.9,70.4,72.2,61.5,45.2,95,53,22,30.21,30.05,18,6,0,0.43
2012-6-16,96.4,83.4,74.7,67.4,58.1,41.7,74,46,18,30.23,30.09,15,6,0,0.00
2012-6-17,93.6,82.4,72.6,67.7,57.9,44.4,82,46,22,30.22,30.00,15,5,0,0.00
2012-6-18,93.8,83.6,74.8,62.4,54.7,44.8,62,39,21,30.07,29.91,21,8,0,0.00
2012-6-19,93.3,80.7,75.3,68.8,61.9,45.8,80,56,22,30.14,29.98,24,11,0,0.00
2012-6-20,94.0,82.7,75.4,70.1,58.4,42.3,83,49,20,30.18,30.05,21,9,0,0.00
2012-6-21,99.9,84.7,75.0,69.0,53.4,30.1,81,41,12,30.23,30.07,17,3,0,0.00
2012-6-22,105.1,87.8,74.7,70.6,50.3,24.8,80,34,9,30.19,29.98,11,1,0,0.00
2012-6-23,102.9,88.7,78.5,68.0,49.8,25.6,70,31,9,30.12,29.99,13,2,0,0.00
2012-6-24,105.0,89.0,73.0,69.9,46.8,21.1,86,31,7,30.18,30.01,11,1,0,0.00
2012-6-25,110.3,91.7,74.8,66.3,44.1,16.5,70,26,5,30.15,29.92,11,1,0,0.00
2012-6-26,115.8,93.8,77.5,70.7,48.0,14.3,76,29,4,30.04,29.86,13,2,0,0.00
2012-6-27,107.2,91.6,81.6,66.9,46.1,16.8,58,26,5,30.13,29.97,14,4,0,0.00
2012-6-28,103.6,90.1,77.3,63.7,44.5,22.3,61,25,7,30.22,30.08,17,4,0,0.00
2012-6-29,101.7,89.3,78.6,66.0,48.7,29.5,64,29,10,30.20,30.00,17,6,0,0.00
2012-6-30,99.2,87.3,77.7,66.9,54.1,37.6,68,36,15,30.12,29.96,19,5,0,0.00
2012-7-1,95.8,83.3,75.9,69.3,57.8,39.3,76,46,17,30.20,30.09,27,7,0,0.00
2012-7-2,95.9,84.5,77.9,68.5,56.7,40.7,72,42,18,30.27,30.14,20,6,0,0.00
2012-7-3,99.6,87.5,77.9,62.5,46.6,25.9,59,28,9,30.24,30.06,16,7,0,0.00
2012-7-4,99.3,87.7,77.3,65.4,50.8,33.6,65,33,12,30.21,30.05,18,7,0,0.00
2012-7-5,101.7,88.5,78.1,66.0,49.2,27.1,65,30,10,30.22,30.07,16,6,0,0.00
2012-7-6,103.7,90.3,81.2,61.2,46.4,28.4,50,25,9,30.23,30.06,15,4,0,0.00
2012-7-7,106.9,85.0,74.7,70.9,53.5,18.5,88,42,5,30.22,30.07,29,3,0,0.00
2012-7-8,103.0,81.9,70.7,74.1,60.5,30.6,96,60,11,30.22,30.03,32,2,0,0.51
2012-7-9,102.8,83.6,75.2,74.8,60.2,32.7,94,55,12,30.19,29.97,16,3,0,0.00
2012-7-10,96.2,81.6,74.3,72.0,60.8,39.5,92,56,17,30.17,30.00,17,2,0,0.00
2012-7-11,97.0,84.2,74.2,69.5,54.6,28.2,78,43,11,30.17,30.01,14,4,0,0.00
2012-7-12,96.8,84.1,73.4,73.3,57.3,37.9,91,46,16,30.16,30.03,14,3,0,0.00
2012-7-13,98.3,84.8,74.5,72.1,56.1,36.8,91,44,15,30.20,30.06,13,3,0,0.00
2012-7-14,97.5,83.9,74.7,70.8,55.3,34.1,85,45,13,30.22,30.07,25,3,0,0.04
2012-7-15,96.4,78.4,72.5,69.7,60.9,39.0,79,58,17,30.23,30.10,14,2,0,0.00
2012-7-16,95.3,82.9,71.4,69.1,57.2,42.0,91,47,18,30.22,30.03,18,6,0,0.00
2012-7-17,100.3,86.9,76.6,69.2,54.1,35.1,77,38,14,30.20,30.02,16,6,0,0.00
2012-7-18,104.6,88.5,77.1,71.5,53.0,30.4,82,36,10,30.21,30.05,14,5,0,0.00
2012-7-19,97.9,85.1,78.9,65.6,55.5,34.3,64,39,13,30.25,30.18,15,5,0,0.00
2012-8-8,104.8,91.4,78.6,63.6,46.7,22.0,60,23,7,30.22,30.02,17,4,8,0.00
2012-8-9,113.1,91.7,76.2,69.9,44.1,8.4,80,31,3,30.19,29.88,19,4,0,0.00
2012-8-10,99.9,90.1,81.9,60.9,37.4,9.3,46,18,4,30.12,29.97,19,5,0,0.00
2012-8-11,102.3,87.4,76.2,43.7,24.5,-1.5,28,12,3,30.22,30.01,12,2,0,0.00
2012-8-12,105.5,89.4,75.8,53.8,43.6,29.1,46,24,8,30.16,29.94,19,6,0,0.00
2012-8-13,105.2,92.5,83.0,57.8,33.7,-1.9,40,17,3,30.17,30.01,15,5,0,0.00
2012-8-14,107.4,90.0,74.7,72.4,36.8,13.2,86,21,4,30.16,29.89,18,5,0,0.16
2012-8-15,77.2,73.0,69.1,71.8,69.7,66.5,100,90,74,30.19,30.08,19,4,0,1.38
2012-11-5,76.4,66.4,56.2,70.9,6.3,-6.0,99,11,5,30.34,30.13,20,6,18,8.62
2012-11-6,75.0,59.7,44.2,44.6,21.6,-10.1,70,29,5,30.41,30.22,9,1,0,0.00
2012-11-7,81.2,62.1,47.0,49.4,21.0,-9.7,96,34,4,30.43,30.23,9,1,0,0.00
2012-11-8,82.2,66.1,50.8,44.0,33.7,19.9,48,32,12,30.33,30.14,24,7,0,0.00
2012-11-9,84.0,72.6,62.6,51.7,39.5,26.1,66,34,13,30.23,30.08,28,10,0,0.00
2012-11-10,81.9,72.5,64.7,53.1,42.6,32.6,63,37,19,30.21,30.02,26,10,0,0.00
2012-11-11,77.6,65.1,50.7,51.0,42.7,27.0,64,45,26,30.44,29.97,25,8,0,0.00
2012-11-12,50.7,50.7,50.7,27.3,27.3,27.3,40,40,40,30.44,30.44,5,5,0,0.00
2012-11-21,80.9,72.2,58.3,35.6,22.1,-2.7,26,16,6,30.49,30.28,12,5,8,0.00
2012-11-22,77.5,65.8,52.3,41.0,30.6,5.4,54,29,7,30.34,30.19,19,6,0,0.00
2012-11-23,66.4,59.4,48.8,46.4,13.9,-10.5,64,23,5,30.69,30.30,24,7,0,0.00
2012-11-24,65.9,50.3,35.6,21.9,-0.4,-15.1,52,15,5,30.72,30.32,10,2,0,0.00
2012-11-25,76.6,59.5,41.2,41.2,16.0,-3.4,43,21,6,30.35,30.03,16,6,0,0.00
2012-11-26,64.3,62.5,60.5,55.3,52.5,41.1,80,70,43,30.14,30.09,11,6,0,0.00
2012-11-27,62.7,62.7,62.7,53.9,53.9,53.9,73,73,73,30.12,30.12,7,7,0,0.00
2012-11-28,67.2,60.4,46.1,53.9,28.9,1.5,73,38,8,30.78,30.12,14,5,7,0.00
2012-11-29,57.4,57.4,57.4,15.5,15.5,15.5,19,19,19,30.51,30.51,2,2,0,0.00
2012-11-30,73.9,63.3,57.4,54.6,30.9,15.5,71,32,19,30.51,30.20,17,4,13,0.00
2012-12-1,65.1,65.1,63.9,55.8,55.8,54.3,72,72,71,30.25,30.23,15,11,0,0.00
2012-12-2,65.1,65.1,65.1,55.8,55.8,55.8,72,72,72,30.25,30.25,11,11,0,0.00
2012-12-3,76.0,70.0,65.1,55.9,46.3,37.7,72,47,27,30.25,30.20,17,14,0,0.00
2012-12-4,73.9,70.2,65.4,38.8,32.9,23.1,28,25,20,30.37,30.21,17,13,0,0.00
2012-12-5,70.4,63.0,51.3,43.5,30.5,15.3,73,32,15,30.51,30.27,9,5,8,0.00
2012-12-6,69.4,60.6,49.2,50.9,36.7,24.9,92,50,19,30.28,30.01,18,7,0,0.00
2012-12-7,69.3,69.3,69.3,25.3,25.3,25.3,19,19,19,30.02,30.02,8,8,0,0.00
2012-12-8,69.3,69.3,69.3,25.3,25.3,25.3,19,19,19,30.02,30.02,8,8,0,0.00
2012-12-9,69.3,69.3,69.3,25.3,25.3,25.3,19,19,19,30.02,30.02,8,8,0,0.00
2012-12-10,69.3,55.2,31.6,25.3,14.4,-15.1,49,21,9,30.47,30.02,14,6,14,0.00
2012-12-11,33.4,30.6,25.3,22.9,19.9,12.9,77,64,48,30.47,30.43,1,1,0,0.00
2012-12-12,58.3,43.0,30.9,20.2,6.1,-13.7,64,32,6,30.59,30.39,14,4,10,0.00
2012-12-13,58.5,47.4,33.9,15.5,1.4,-9.7,44,20,7,30.59,30.50,13,5,0,0.00
2012-12-14,61.4,57.5,54.0,53.5,15.3,-7.4,80,29,7,30.50,30.06,22,9,14,0.24